VJT4PP LEBL-GMMX

Flight info

Callsign VJT4PP
Flight time 2h 8m
Altitude 39000
Route LOTOS M985 SOPET/N0469F390 M985 YES DCT MAMIS M985 MGA DCT PIMOS N869 GALTO UN869 MABAP
Aircraft A339/H-SADE1E2E3GHIJ3J5M1P2RWXY/LB2D1

Departure

Time 2026-05-08 06:02
Airport Josep Tarradellas Barcelona-El Prat Airport (LEBL)

Arrival

Time 2026-05-08 08:11
Airport Marrakesh Menara Airport (GMMX)
Time Latitude Longitude Altitude Speed Heading
2026-05-08 05:39 41.28802 2.08124 23 ft 0 kts 65°
2026-05-08 05:57 41.28805 2.08134 27 ft 6 kts 65°
2026-05-08 05:57 41.28787 2.08207 22 ft 11 kts 143°
2026-05-08 05:57 41.28726 2.08283 23 ft 11 kts 106°
2026-05-08 05:57 41.28747 2.08385 23 ft 13 kts 69°
2026-05-08 05:58 41.28775 2.08479 28 ft 11 kts 66°
2026-05-08 05:58 41.28812 2.08577 27 ft 15 kts 64°
2026-05-08 05:58 41.28865 2.08730 27 ft 20 kts 65°
2026-05-08 05:58 41.28926 2.08905 25 ft 21 kts 65°
2026-05-08 05:59 41.28992 2.09102 26 ft 30 kts 66°
2026-05-08 05:59 41.29094 2.09396 26 ft 36 kts 65°
2026-05-08 05:59 41.29194 2.09682 25 ft 34 kts 65°
2026-05-08 05:59 41.29265 2.09886 26 ft 9 kts 62°
2026-05-08 06:00 41.29310 2.09999 26 ft 18 kts 63°
2026-05-08 06:00 41.29370 2.10161 25 ft 20 kts 66°
2026-05-08 06:00 41.29325 2.10273 20 ft 13 kts 164°
2026-05-08 06:00 41.29233 2.10308 20 ft 7 kts 167°
2026-05-08 06:01 41.29221 2.10305 20 ft 3 kts 185°
2026-05-08 06:01 41.29212 2.10292 23 ft 1 kts 221°
2026-05-08 06:01 41.29201 2.10262 24 ft 6 kts 240°
2026-05-08 06:01 41.29180 2.10206 24 ft 12 kts 244°
2026-05-08 06:02 41.29030 2.09784 29 ft 95 kts 245°
2026-05-08 06:02 41.28644 2.08651 40 ft 168 kts 247°
2026-05-08 06:02 41.28033 2.07241 691 ft 177 kts 230°
2026-05-08 06:02 41.27447 2.06492 1319 ft 179 kts 215°
2026-05-08 06:03 41.26240 2.05921 2003 ft 193 kts 186°
2026-05-08 06:03 41.24830 2.05867 2494 ft 213 kts 177°
2026-05-08 06:03 41.23301 2.05946 3130 ft 221 kts 177°
2026-05-08 06:03 41.21765 2.05970 3940 ft 221 kts 179°
2026-05-08 06:04 41.20223 2.05918 4719 ft 223 kts 181°
2026-05-08 06:04 41.18666 2.05810 5433 ft 225 kts 182°
2026-05-08 06:04 41.17117 2.05395 6122 ft 230 kts 198°
2026-05-08 06:04 41.15667 2.04453 6747 ft 237 kts 207°
2026-05-08 06:05 41.14168 2.03371 7148 ft 250 kts 207°
2026-05-08 06:05 41.12630 2.02292 7769 ft 251 kts 206°
2026-05-08 06:05 41.11078 2.01223 8407 ft 252 kts 206°
2026-05-08 06:05 41.09513 2.00154 9051 ft 252 kts 206°
2026-05-08 06:06 41.07976 1.99025 9637 ft 256 kts 216°
2026-05-08 06:06 41.06840 1.97220 10203 ft 258 kts 243°
2026-05-08 06:06 41.06294 1.94935 10638 ft 267 kts 255°
2026-05-08 06:06 41.05838 1.92466 10806 ft 285 kts 256°
2026-05-08 06:07 41.05345 1.89824 10977 ft 305 kts 255°
2026-05-08 06:07 41.04632 1.87085 11164 ft 324 kts 248°
2026-05-08 06:07 41.03789 1.84253 11418 ft 338 kts 248°
2026-05-08 06:07 41.02915 1.81333 12015 ft 341 kts 248°
2026-05-08 06:08 41.02036 1.78394 12615 ft 344 kts 248°
2026-05-08 06:08 41.01155 1.75439 13224 ft 347 kts 248°
2026-05-08 06:08 41.00266 1.72461 13821 ft 350 kts 249°
2026-05-08 06:08 40.99367 1.69453 14371 ft 352 kts 249°
2026-05-08 06:09 40.98463 1.66428 14919 ft 354 kts 249°
2026-05-08 06:09 40.97555 1.63393 15487 ft 356 kts 249°
2026-05-08 06:09 40.96655 1.60389 16034 ft 357 kts 249°
2026-05-08 06:09 40.95734 1.57320 16584 ft 359 kts 249°
2026-05-08 06:10 40.94921 1.54190 17113 ft 361 kts 253°
2026-05-08 06:10 40.94184 1.51003 17697 ft 362 kts 253°
2026-05-08 06:10 40.93444 1.47818 18261 ft 364 kts 253°
2026-05-08 06:10 40.92694 1.44611 18738 ft 366 kts 253°
2026-05-08 06:11 40.91938 1.41396 19225 ft 367 kts 253°
2026-05-08 06:11 40.91176 1.38163 19702 ft 369 kts 253°
2026-05-08 06:11 40.90410 1.34916 20201 ft 371 kts 253°
2026-05-08 06:11 40.89641 1.31662 20753 ft 370 kts 253°
2026-05-08 06:12 40.88870 1.28402 21242 ft 373 kts 253°
2026-05-08 06:12 40.88093 1.25126 21706 ft 375 kts 253°
2026-05-08 06:12 40.87310 1.21828 22196 ft 377 kts 253°
2026-05-08 06:12 40.86521 1.18509 22684 ft 380 kts 253°
2026-05-08 06:13 40.85492 1.15288 23137 ft 384 kts 241°
2026-05-08 06:13 40.83863 1.12475 23596 ft 390 kts 227°
2026-05-08 06:13 40.81707 1.10268 24008 ft 396 kts 213°
2026-05-08 06:13 40.79159 1.08834 24469 ft 402 kts 199°
2026-05-08 06:14 40.76441 1.07902 24879 ft 404 kts 198°
2026-05-08 06:14 40.73717 1.06958 25297 ft 406 kts 198°
2026-05-08 06:14 40.70982 1.05996 25722 ft 408 kts 199°
2026-05-08 06:14 40.68236 1.05023 26146 ft 409 kts 199°
2026-05-08 06:15 40.65482 1.04044 26561 ft 411 kts 199°
2026-05-08 06:15 40.62720 1.03062 26957 ft 413 kts 199°
2026-05-08 06:15 40.59941 1.02076 27362 ft 415 kts 199°
2026-05-08 06:15 40.57206 1.00902 27728 ft 412 kts 207°
2026-05-08 06:16 40.54688 0.99116 28117 ft 409 kts 217°
2026-05-08 06:16 40.52479 0.96792 28499 ft 407 kts 226°
2026-05-08 06:16 40.50554 0.94064 28866 ft 407 kts 230°
2026-05-08 06:16 40.48650 0.91299 29248 ft 409 kts 230°
2026-05-08 06:17 40.44792 0.85774 30031 ft 411 kts 229°
2026-05-08 06:17 40.42852 0.83012 30346 ft 413 kts 229°
2026-05-08 06:17 40.40924 0.80272 30686 ft 414 kts 229°
2026-05-08 06:18 40.38967 0.77493 31024 ft 416 kts 229°
2026-05-08 06:18 40.37003 0.74702 31378 ft 417 kts 229°
2026-05-08 06:18 40.35036 0.71909 31726 ft 418 kts 229°
2026-05-08 06:18 40.33059 0.69108 32034 ft 419 kts 229°
2026-05-08 06:19 40.31076 0.66301 32354 ft 421 kts 229°
2026-05-08 06:19 40.29079 0.63476 32643 ft 422 kts 229°
2026-05-08 06:19 40.27086 0.60661 32883 ft 423 kts 229°
2026-05-08 06:19 40.25084 0.57833 33079 ft 424 kts 229°
2026-05-08 06:20 40.23081 0.55009 33423 ft 421 kts 229°
2026-05-08 06:20 40.21083 0.52193 33622 ft 422 kts 229°
2026-05-08 06:20 40.19086 0.49383 33827 ft 421 kts 229°
2026-05-08 06:20 40.17095 0.46584 34061 ft 420 kts 229°
2026-05-08 06:21 40.15103 0.43787 34261 ft 419 kts 229°
2026-05-08 06:21 40.13118 0.41001 34481 ft 418 kts 229°
2026-05-08 06:21 40.11141 0.38229 34680 ft 417 kts 229°
2026-05-08 06:21 40.09166 0.35457 34906 ft 416 kts 228°
2026-05-08 06:22 40.07192 0.32692 35108 ft 415 kts 228°
2026-05-08 06:22 40.05224 0.29941 35301 ft 414 kts 228°
2026-05-08 06:22 40.03260 0.27198 35486 ft 413 kts 228°
2026-05-08 06:22 40.01302 0.24465 35734 ft 411 kts 228°
2026-05-08 06:23 39.99350 0.21741 35951 ft 410 kts 228°
2026-05-08 06:23 39.97408 0.19032 36131 ft 409 kts 228°
2026-05-08 06:23 39.95494 0.16364 36314 ft 408 kts 228°
2026-05-08 06:23 39.93557 0.13665 36502 ft 407 kts 228°
2026-05-08 06:24 39.91619 0.10969 36681 ft 407 kts 228°
2026-05-08 06:24 39.89688 0.08283 36877 ft 406 kts 228°
2026-05-08 06:24 39.87763 0.05610 37049 ft 405 kts 228°
2026-05-08 06:24 39.85832 0.02931 37221 ft 404 kts 228°
2026-05-08 06:25 39.83912 0.00268 37383 ft 404 kts 228°
2026-05-08 06:25 39.81992 -0.02393 37587 ft 403 kts 227°
2026-05-08 06:25 39.80071 -0.05053 37754 ft 402 kts 227°
2026-05-08 06:25 39.78169 -0.07681 38046 ft 398 kts 227°
2026-05-08 06:26 39.76271 -0.10301 38220 ft 398 kts 227°
2026-05-08 06:26 39.74375 -0.12916 38377 ft 397 kts 227°
2026-05-08 06:26 39.72481 -0.15527 38542 ft 396 kts 227°
2026-05-08 06:26 39.70592 -0.18128 38692 ft 396 kts 227°
2026-05-08 06:27 39.66806 -0.23336 38868 ft 397 kts 227°
2026-05-08 06:27 39.63008 -0.28551 38996 ft 398 kts 227°
2026-05-08 06:28 39.59214 -0.33752 39005 ft 396 kts 227°
2026-05-08 06:28 39.55421 -0.38943 38993 ft 397 kts 227°
2026-05-08 06:29 39.51624 -0.44130 38994 ft 397 kts 227°
2026-05-08 06:29 39.47905 -0.49411 38992 ft 397 kts 231°
2026-05-08 06:30 39.44594 -0.55071 38995 ft 397 kts 232°
2026-05-08 06:30 39.41267 -0.60771 38995 ft 397 kts 232°
2026-05-08 06:31 39.37930 -0.66457 38995 ft 397 kts 232°
2026-05-08 06:31 39.34586 -0.72144 38974 ft 397 kts 232°
2026-05-08 06:32 39.31252 -0.77803 39015 ft 397 kts 232°
2026-05-08 06:32 39.27898 -0.83490 38988 ft 398 kts 232°
2026-05-08 06:33 39.24551 -0.89159 39003 ft 397 kts 232°
2026-05-08 06:33 39.21188 -0.94830 38992 ft 397 kts 232°
2026-05-08 06:34 39.17829 -1.00487 38990 ft 398 kts 232°
2026-05-08 06:34 39.14455 -1.06165 39013 ft 399 kts 232°
2026-05-08 06:35 39.11079 -1.11835 39001 ft 398 kts 232°
2026-05-08 06:35 39.07735 -1.17443 39018 ft 399 kts 232°
2026-05-08 06:36 39.04348 -1.23110 39021 ft 399 kts 232°
2026-05-08 06:36 39.00958 -1.28773 39026 ft 399 kts 232°
2026-05-08 06:37 38.97573 -1.34417 39024 ft 399 kts 232°
2026-05-08 06:37 38.94181 -1.40067 39004 ft 399 kts 232°
2026-05-08 06:38 38.90778 -1.45722 38998 ft 400 kts 232°
2026-05-08 06:38 38.87377 -1.51362 39008 ft 398 kts 232°
2026-05-08 06:39 38.83991 -1.56970 39002 ft 398 kts 232°
2026-05-08 06:39 38.80598 -1.62580 39002 ft 398 kts 232°
2026-05-08 06:40 38.77200 -1.68188 38995 ft 398 kts 232°
2026-05-08 06:40 38.73822 -1.73752 38996 ft 398 kts 232°
2026-05-08 06:41 38.70417 -1.79352 38999 ft 398 kts 231°
2026-05-08 06:41 38.67011 -1.84940 39002 ft 398 kts 231°
2026-05-08 06:42 38.63601 -1.90524 38994 ft 398 kts 232°
2026-05-08 06:42 38.60192 -1.96098 39004 ft 398 kts 231°
2026-05-08 06:43 38.56774 -2.01677 38995 ft 398 kts 231°
2026-05-08 06:43 38.53354 -2.07252 39001 ft 398 kts 231°
2026-05-08 06:44 38.49938 -2.12809 38994 ft 398 kts 231°
2026-05-08 06:44 38.46513 -2.18375 38994 ft 398 kts 231°
2026-05-08 06:45 38.43082 -2.23940 38996 ft 399 kts 231°
2026-05-08 06:45 38.39651 -2.29497 39018 ft 399 kts 231°
2026-05-08 06:46 38.36171 -2.35076 38982 ft 403 kts 229°
2026-05-08 06:46 38.32349 -2.40306 38992 ft 403 kts 226°
2026-05-08 06:47 38.28500 -2.45459 38980 ft 403 kts 227°
2026-05-08 06:47 38.24615 -2.50668 38985 ft 404 kts 226°
2026-05-08 06:48 38.20766 -2.55826 38983 ft 405 kts 226°
2026-05-08 06:48 38.17520 -2.60168 38981 ft 405 kts 226°
2026-05-08 06:49 38.13651 -2.65327 38962 ft 401 kts 227°
2026-05-08 06:49 38.09785 -2.70479 38967 ft 406 kts 227°
2026-05-08 06:50 38.05885 -2.75670 38960 ft 406 kts 227°
2026-05-08 06:50 38.02004 -2.80825 38957 ft 406 kts 227°
2026-05-08 06:51 37.98095 -2.86010 38954 ft 406 kts 227°
2026-05-08 06:51 37.94198 -2.91169 38950 ft 405 kts 227°
2026-05-08 06:52 37.90290 -2.96333 38959 ft 405 kts 227°
2026-05-08 06:52 37.86393 -3.01474 38958 ft 405 kts 227°
2026-05-08 06:53 37.82485 -3.06623 38952 ft 406 kts 227°
2026-05-08 06:53 37.78567 -3.11773 38936 ft 407 kts 227°
2026-05-08 06:54 37.74638 -3.16938 38950 ft 407 kts 227°
2026-05-08 06:54 37.70709 -3.22092 38946 ft 407 kts 227°
2026-05-08 06:55 37.66768 -3.27250 38939 ft 407 kts 227°
2026-05-08 06:55 37.62889 -3.32317 38957 ft 403 kts 227°
2026-05-08 06:56 37.58989 -3.37408 38955 ft 404 kts 227°
2026-05-08 06:56 37.55081 -3.42498 38954 ft 404 kts 227°
2026-05-08 06:57 37.51174 -3.47578 38956 ft 403 kts 227°
2026-05-08 06:57 37.47266 -3.52654 38953 ft 404 kts 227°
2026-05-08 06:58 37.43351 -3.57732 38956 ft 404 kts 227°
2026-05-08 06:58 37.39468 -3.62754 38948 ft 394 kts 227°
2026-05-08 06:59 37.35648 -3.67692 38947 ft 395 kts 227°
2026-05-08 06:59 37.31837 -3.72612 38947 ft 395 kts 227°
2026-05-08 07:00 37.28002 -3.77555 38948 ft 395 kts 227°
2026-05-08 07:00 37.24166 -3.82488 38985 ft 395 kts 227°
2026-05-08 07:01 37.20330 -3.87415 38966 ft 394 kts 227°
2026-05-08 07:01 37.16496 -3.92330 38939 ft 393 kts 227°
2026-05-08 07:02 37.12677 -3.97220 38955 ft 392 kts 227°
2026-05-08 07:02 37.08859 -4.02101 38952 ft 392 kts 226°
2026-05-08 07:03 37.05039 -4.06976 38958 ft 392 kts 227°
2026-05-08 07:03 37.01216 -4.11848 38950 ft 392 kts 227°
2026-05-08 07:04 36.97407 -4.16696 38943 ft 393 kts 226°
2026-05-08 07:04 36.93560 -4.21585 38949 ft 393 kts 227°
2026-05-08 07:05 36.89752 -4.26418 38956 ft 390 kts 226°
2026-05-08 07:05 36.85948 -4.31237 38957 ft 390 kts 226°
2026-05-08 07:06 36.82033 -4.35930 38960 ft 391 kts 222°
2026-05-08 07:06 36.77666 -4.39999 38964 ft 394 kts 216°
2026-05-08 07:07 36.73028 -4.43647 38966 ft 394 kts 216°
2026-05-08 07:07 36.68406 -4.47312 38965 ft 394 kts 216°
2026-05-08 07:08 36.63791 -4.50975 38956 ft 393 kts 216°
2026-05-08 07:08 36.59169 -4.54638 38959 ft 394 kts 216°
2026-05-08 07:09 36.54547 -4.58295 38969 ft 395 kts 216°
2026-05-08 07:09 36.49876 -4.61986 38957 ft 398 kts 216°
2026-05-08 07:10 36.45224 -4.65654 38960 ft 398 kts 216°
2026-05-08 07:10 36.40549 -4.69336 38926 ft 398 kts 216°
2026-05-08 07:11 36.35870 -4.73016 38960 ft 399 kts 216°
2026-05-08 07:11 36.31183 -4.76698 38963 ft 399 kts 216°
2026-05-08 07:12 36.26494 -4.80376 38979 ft 399 kts 216°
2026-05-08 07:12 36.21795 -4.84056 38978 ft 399 kts 216°
2026-05-08 07:13 36.17103 -4.87725 38961 ft 399 kts 216°
2026-05-08 07:13 36.12413 -4.91401 38969 ft 398 kts 216°
2026-05-08 07:14 36.07750 -4.95102 38975 ft 398 kts 216°
2026-05-08 07:14 36.03071 -4.98806 38963 ft 400 kts 217°
2026-05-08 07:15 35.98414 -5.02485 38967 ft 400 kts 217°
2026-05-08 07:15 35.93721 -5.06184 38964 ft 400 kts 217°
2026-05-08 07:16 35.89024 -5.09882 38964 ft 400 kts 217°
2026-05-08 07:16 35.84321 -5.13579 38958 ft 400 kts 217°
2026-05-08 07:17 35.79821 -5.17574 38944 ft 398 kts 220°
2026-05-08 07:17 35.75385 -5.21684 38940 ft 399 kts 220°
2026-05-08 07:18 35.70950 -5.25774 38951 ft 399 kts 220°
2026-05-08 07:18 35.66504 -5.29863 38955 ft 399 kts 220°
2026-05-08 07:19 35.62056 -5.33947 38974 ft 399 kts 220°
2026-05-08 07:19 35.57611 -5.38024 38939 ft 398 kts 220°
2026-05-08 07:20 35.53197 -5.42069 38939 ft 398 kts 220°
2026-05-08 07:20 35.48757 -5.46129 38934 ft 399 kts 221°
2026-05-08 07:21 35.44309 -5.50193 38934 ft 398 kts 220°
2026-05-08 07:21 35.39876 -5.54234 38918 ft 395 kts 220°
2026-05-08 07:22 35.35467 -5.58245 38921 ft 394 kts 221°
2026-05-08 07:22 35.31054 -5.62263 38915 ft 395 kts 221°
2026-05-08 07:23 35.26638 -5.66274 38919 ft 394 kts 221°
2026-05-08 07:23 35.22221 -5.70281 38919 ft 396 kts 221°
2026-05-08 07:24 35.17791 -5.74293 38914 ft 398 kts 221°
2026-05-08 07:24 35.13343 -5.78316 38919 ft 397 kts 221°
2026-05-08 07:25 35.08921 -5.82307 38918 ft 393 kts 221°
2026-05-08 07:26 35.02318 -5.88263 38923 ft 394 kts 221°
2026-05-08 07:26 34.97910 -5.92231 38921 ft 393 kts 221°
2026-05-08 07:27 34.93506 -5.96190 38926 ft 394 kts 221°
2026-05-08 07:27 34.89096 -6.00148 38921 ft 394 kts 221°
2026-05-08 07:28 34.84684 -6.04104 38924 ft 394 kts 221°
2026-05-08 07:28 34.80288 -6.08037 38922 ft 391 kts 221°
2026-05-08 07:29 34.75918 -6.11943 38921 ft 393 kts 221°
2026-05-08 07:29 34.71514 -6.15876 38922 ft 393 kts 221°
2026-05-08 07:30 34.67114 -6.19800 38922 ft 392 kts 221°
2026-05-08 07:30 34.62721 -6.23711 38927 ft 392 kts 221°
2026-05-08 07:31 34.58431 -6.27525 38921 ft 392 kts 221°
2026-05-08 07:31 34.54046 -6.31417 38923 ft 388 kts 221°
2026-05-08 07:32 34.49681 -6.35289 38932 ft 389 kts 221°
2026-05-08 07:32 34.45309 -6.39163 38922 ft 389 kts 221°
2026-05-08 07:33 34.40931 -6.43035 38918 ft 389 kts 221°
2026-05-08 07:33 34.36559 -6.46897 38947 ft 390 kts 222°
2026-05-08 07:34 34.32204 -6.50738 38926 ft 390 kts 222°
2026-05-08 07:34 34.27817 -6.54601 38917 ft 389 kts 222°
2026-05-08 07:35 34.23453 -6.58441 38920 ft 388 kts 222°
2026-05-08 07:35 34.19084 -6.62281 38934 ft 388 kts 222°
2026-05-08 07:36 34.14710 -6.66120 38934 ft 388 kts 222°
2026-05-08 07:36 34.10335 -6.69954 38939 ft 388 kts 222°
2026-05-08 07:37 34.05994 -6.73756 38939 ft 388 kts 222°
2026-05-08 07:37 34.01575 -6.77512 38928 ft 388 kts 220°
2026-05-08 07:38 33.97098 -6.81149 38937 ft 388 kts 220°
2026-05-08 07:38 33.93353 -6.84208 38935 ft 388 kts 220°
2026-05-08 07:39 33.88912 -6.87848 38938 ft 388 kts 221°
2026-05-08 07:39 33.84449 -6.91508 38939 ft 388 kts 221°
2026-05-08 07:40 33.79986 -6.95163 38938 ft 388 kts 221°
2026-05-08 07:40 33.75517 -6.98816 38881 ft 388 kts 221°
2026-05-08 07:41 33.71056 -7.02458 38927 ft 388 kts 221°
2026-05-08 07:41 33.66599 -7.06095 38929 ft 388 kts 221°
2026-05-08 07:42 33.62129 -7.09736 38936 ft 388 kts 221°
2026-05-08 07:42 33.57659 -7.13372 38940 ft 388 kts 221°
2026-05-08 07:43 33.53186 -7.17008 38943 ft 388 kts 221°
2026-05-08 07:43 33.48714 -7.20635 38942 ft 388 kts 221°
2026-05-08 07:44 33.44236 -7.24262 38948 ft 388 kts 221°
2026-05-08 07:44 33.39792 -7.27861 38954 ft 388 kts 221°
2026-05-08 07:45 33.35311 -7.31484 38956 ft 388 kts 221°
2026-05-08 07:45 33.31029 -7.34941 38961 ft 388 kts 221°
2026-05-08 07:46 33.26533 -7.38566 38965 ft 388 kts 221°
2026-05-08 07:46 33.22048 -7.42179 38971 ft 388 kts 221°
2026-05-08 07:47 33.17566 -7.45783 38964 ft 388 kts 221°
2026-05-08 07:47 33.13081 -7.49386 38969 ft 388 kts 221°
2026-05-08 07:48 33.08466 -7.52802 38968 ft 392 kts 218°
2026-05-08 07:48 33.03771 -7.56101 38968 ft 391 kts 219°
2026-05-08 07:49 32.99113 -7.59381 38972 ft 391 kts 219°
2026-05-08 07:49 32.94424 -7.62681 38969 ft 391 kts 219°
2026-05-08 07:50 32.89735 -7.65974 38962 ft 392 kts 219°
2026-05-08 07:50 32.85035 -7.69273 38970 ft 392 kts 219°
2026-05-08 07:50 32.82694 -7.70913 38847 ft 390 kts 219°
2026-05-08 07:51 32.80353 -7.72551 38266 ft 391 kts 219°
2026-05-08 07:51 32.78000 -7.74202 37221 ft 396 kts 219°
2026-05-08 07:51 32.75607 -7.75884 35992 ft 402 kts 218°
2026-05-08 07:51 32.73188 -7.77579 34803 ft 405 kts 218°
2026-05-08 07:52 32.70750 -7.79282 33582 ft 407 kts 218°
2026-05-08 07:52 32.68305 -7.80996 32137 ft 410 kts 218°
2026-05-08 07:52 32.65843 -7.82742 30638 ft 414 kts 218°
2026-05-08 07:52 32.63353 -7.84502 29113 ft 418 kts 218°
2026-05-08 07:53 32.60850 -7.86258 27964 ft 417 kts 217°
2026-05-08 07:53 32.58346 -7.88005 27104 ft 414 kts 217°
2026-05-08 07:53 32.55886 -7.89713 26534 ft 405 kts 217°
2026-05-08 07:53 32.53483 -7.91375 26087 ft 395 kts 216°
2026-05-08 07:54 32.51139 -7.92997 25658 ft 385 kts 216°
2026-05-08 07:54 32.48834 -7.94596 25224 ft 384 kts 216°
2026-05-08 07:54 32.46522 -7.96204 24833 ft 387 kts 216°
2026-05-08 07:54 32.44203 -7.97816 24524 ft 386 kts 216°
2026-05-08 07:55 32.41874 -7.99432 23893 ft 389 kts 216°
2026-05-08 07:55 32.39569 -8.01028 23213 ft 389 kts 215°
2026-05-08 07:55 32.37248 -8.02631 22646 ft 382 kts 215°
2026-05-08 07:55 32.34978 -8.04196 22051 ft 374 kts 215°
2026-05-08 07:56 32.32749 -8.05733 21467 ft 368 kts 215°
2026-05-08 07:56 32.30557 -8.07246 20886 ft 362 kts 215°
2026-05-08 07:56 32.28391 -8.08744 19954 ft 364 kts 214°
2026-05-08 07:56 32.26172 -8.10284 18719 ft 377 kts 214°
2026-05-08 07:57 32.23901 -8.11856 17837 ft 377 kts 213°
2026-05-08 07:57 32.21649 -8.13405 17222 ft 369 kts 213°
2026-05-08 07:57 32.19472 -8.14898 16903 ft 355 kts 213°
2026-05-08 07:57 32.17339 -8.16362 16528 ft 356 kts 213°
2026-05-08 07:58 32.15158 -8.17754 15963 ft 358 kts 206°
2026-05-08 07:58 32.12736 -8.18438 15395 ft 360 kts 188°
2026-05-08 07:58 32.10245 -8.18208 14832 ft 362 kts 171°
2026-05-08 07:58 32.07904 -8.17110 14211 ft 364 kts 156°
2026-05-08 07:59 32.05681 -8.15737 13661 ft 358 kts 156°
2026-05-08 07:59 32.03513 -8.14404 13090 ft 352 kts 156°
2026-05-08 07:59 32.01356 -8.13092 12535 ft 346 kts 156°
2026-05-08 07:59 31.99235 -8.11813 11989 ft 340 kts 156°
2026-05-08 08:00 31.97149 -8.10560 11459 ft 334 kts 156°
2026-05-08 08:00 31.95032 -8.09297 10924 ft 355 kts 156°
2026-05-08 08:00 31.92795 -8.07968 10668 ft 361 kts 156°
2026-05-08 08:00 31.90605 -8.06657 10514 ft 344 kts 156°
2026-05-08 08:01 31.88542 -8.05416 10327 ft 322 kts 156°
2026-05-08 08:01 31.86622 -8.04263 10090 ft 299 kts 156°
2026-05-08 08:01 31.84786 -8.03166 9493 ft 294 kts 156°
2026-05-08 08:01 31.82977 -8.02090 8861 ft 288 kts 156°
2026-05-08 08:02 31.81224 -8.01013 8201 ft 282 kts 151°
2026-05-08 08:02 31.79673 -7.99587 7565 ft 285 kts 137°
2026-05-08 08:02 31.78425 -7.97790 6943 ft 281 kts 128°
2026-05-08 08:02 31.77272 -7.95958 6321 ft 278 kts 128°
2026-05-08 08:03 31.76132 -7.94185 5933 ft 271 kts 128°
2026-05-08 08:03 31.74979 -7.92409 5829 ft 268 kts 129°
2026-05-08 08:03 31.73889 -7.90735 5711 ft 248 kts 129°
2026-05-08 08:03 31.72878 -7.89190 5589 ft 231 kts 129°
2026-05-08 08:04 31.71894 -7.87688 5503 ft 233 kts 129°
2026-05-08 08:04 31.70911 -7.86193 5498 ft 231 kts 129°
2026-05-08 08:04 31.69925 -7.84694 5500 ft 232 kts 129°
2026-05-08 08:04 31.68957 -7.83212 5500 ft 223 kts 129°
2026-05-08 08:05 31.68025 -7.81781 5395 ft 221 kts 128°
2026-05-08 08:05 31.66929 -7.80538 5250 ft 219 kts 152°
2026-05-08 08:05 31.65487 -7.80100 5107 ft 215 kts 182°
2026-05-08 08:05 31.63993 -7.80278 4976 ft 216 kts 190°
2026-05-08 08:06 31.62514 -7.80575 4786 ft 214 kts 191°
2026-05-08 08:06 31.61064 -7.80849 4529 ft 209 kts 190°
2026-05-08 08:06 31.59698 -7.81333 4234 ft 204 kts 213°
2026-05-08 08:06 31.58789 -7.82548 3972 ft 198 kts 247°
2026-05-08 08:07 31.58626 -7.84103 3729 ft 192 kts 275°
2026-05-08 08:07 31.58847 -7.85630 3457 ft 189 kts 282°
2026-05-08 08:07 31.59118 -7.87123 3275 ft 183 kts 281°
2026-05-08 08:07 31.59349 -7.88617 3200 ft 188 kts 278°
2026-05-08 08:08 31.59525 -7.90107 3200 ft 181 kts 277°
2026-05-08 08:08 31.59665 -7.91532 3202 ft 175 kts 275°
2026-05-08 08:08 31.59789 -7.92955 3200 ft 176 kts 275°
2026-05-08 08:08 31.59908 -7.94379 3194 ft 172 kts 275°
2026-05-08 08:09 31.59983 -7.95758 2822 ft 166 kts 272°
2026-05-08 08:09 31.60100 -7.97062 2524 ft 153 kts 278°
2026-05-08 08:09 31.60239 -7.98281 2303 ft 154 kts 276°
2026-05-08 08:09 31.60346 -7.99533 2066 ft 149 kts 275°
2026-05-08 08:10 31.60436 -8.00753 1806 ft 151 kts 274°
2026-05-08 08:10 31.60541 -8.01964 1613 ft 152 kts 275°
2026-05-08 08:10 31.60643 -8.03114 1530 ft 119 kts 276°
2026-05-08 08:10 31.60698 -8.03736 1526 ft 50 kts 276°
2026-05-08 08:11 31.60731 -8.04138 1517 ft 48 kts 275°
2026-05-08 08:11 31.60747 -8.04297 1521 ft 5 kts 277°
2026-05-08 08:11 31.60743 -8.04349 1516 ft 7 kts 248°
2026-05-08 08:11 31.60701 -8.04377 1516 ft 8 kts 206°
2026-05-08 08:12 31.60632 -8.04393 1521 ft 12 kts 186°
2026-05-08 08:12 31.60546 -8.04405 1521 ft 13 kts 186°
2026-05-08 08:12 31.60454 -8.04416 1521 ft 14 kts 185°
2026-05-08 08:12 31.60414 -8.04484 1520 ft 10 kts 260°
2026-05-08 08:13 31.60392 -8.04519 1518 ft 7 kts 217°
2026-05-08 08:13 31.60372 -8.04521 1520 ft 3 kts 189°
2026-05-08 08:13 31.60357 -8.04525 1520 ft 0 kts 190°